GAOFEN 13

Last updated on Oct. 30, 2020, 12:02 a.m. UTC

1 46610U 20071A   20303.58940873 -.00000364  00000-0  00000-0 0  9993
2 46610   1.9670 282.1959 0003280 289.9073 156.2422  1.00266007   294
UTC
Height (km)
Latitude
Longitude
Inclination
Orbital Period
UTC large
Height (km)
Speed (km/s)
/
Latitude / Longitude
Inclination (degrees)
Orbital Period (minutes)
Azimuth
Elevation
Range (km)
Doppler Factor
iOS Compass Heading
iOS Angle

Next 30 passes for location: Hong Kong

Rise time Rise Azimuth (degrees) Set time Set Azimuth (degrees) Duration Max altitude (degrees)

No matching passes for this satellites